Tracking 19644 objects as of 25-Apr-2019
HD Live streaming from Space Station
objects crossing your sky now

THORAD AGENA D DEB

Track THORAD AGENA D DEB now!
10-day predictions


NORAD ID: 4683
Int'l Code: 1970-025BG
Perigee: 1,047.0 km
Apogee: 1,233.9 km
Inclination: 100.3 °
Period: 108.0 minutes
Semi major axis: 7511 km
RCS: 0.016 m2 (small)
Launch date: April 8, 1970
Source: United States (US)
Launch site: AIR FORCE WESTERN TEST RANGE (AFWTR)

Note: This is SATELLITE DEBRIS
aabbcc
Your satellite tracking list
Your tracking list is empty




NASA's NSSDC Master Catalog

Two Line Element Set (TLE):
1  4683U 70025BG  19114.12158747 +.00000132 +00000-0 +34423-3 0  9991
2  4683 100.3416 069.6332 0124458 113.6103 313.6451 13.33575342379318
Source of the keplerian elements: AFSPC